Погода в Мосоро

Бразилия     5°11′10″S   37°20′27″W
темп.,
°C
ветер,
м/с
пор.,
м/с
влажн.,
%
обл.,
%
осадки,
мм/ч
давл.,
гПа
погр.,
м
26 февраля, пт
пт2600:00+25в378781 0.9 1010238
03:00+24в259063 1.9 1009141
06:00+24вюв239044 0.3 1009131
09:00+29в456530 2.4 10111054
12:00+31св555661 3.2 10101382
15:00+31св775373 5.1 10081419
18:00+27св587599 0.5 1008562
21:00+25всв498399 4.1 1011353
27 февраля, сб
сб2700:00+25вюв378789 2.3 1011273
03:00+24вюв369094 2.4 1009247
06:00+24вюв369147 0.0 1010238
09:00+29вюв466536 0.0 10121110
12:00+33в454251 0.0 10101974
15:00+33св754758 0.0 10071546
18:00+27св6106956 0.0 1008571
21:00+26всв5107559 0.1 1010548
28 февраля, вс
вс2800:00+25в388018 0.0 1010400
03:00+24вюв248812 0.0 1008149
06:00+24вюв27880 0.0 1009346
09:00+29вюв56570 0.0 10111067
12:00+34вюв45374 0.0 10091968
15:00+34св653951 0.0 10061851
18:00+28св61063100 0.0 1007571
21:00+28всв485798 0.1 1009506
1 марта, пн
пн100:00+25в387655 0.1 1008433
03:00+24вюв278528 0.1 1007366
06:00+23вюв27890 0.0 1008407
09:00+30вюв56571 0.0 10101197
12:00+34в45360 0.0 10082214
15:00+32св765026 0.0 10051461
18:00+27св6107550 2.4 1006528
21:00+26всв6128040 2.8 1009510
2 марта, вт
вт200:00+24в410831 0.3 1009475
03:00+24в37851 0.3 1008265
06:00+23вюв26874 0.0 1009242
09:00+30в57577 0.0 10111234
12:00+34в56380 0.0 10102160
15:00+32св774930 0.0 10071426
18:00+27св6117226 1.3 1009526
21:00+26всв6127516 1.3 1011459